Time,TemperatureF,DewpointF,PressureIn,WindDirection,WindDirectionDegrees,WindSpeedMPH,WindSpeedGustMPH,Humidity,HourlyPrecipIn,Conditions,Clouds,dailyrainin,SoftwareType,DateUTC
2013-07-02 00:14:00,67.5,66.0,29.90,NNE,24,0.0,1.0,96,0.36,,,0.59,weatherlink.com 1.10,2013-07-02 04:14:00,
2013-07-02 00:30:00,67.4,67.0,29.89,NNW,339,0.0,1.0,97,0.33,,,0.59,weatherlink.com 1.10,2013-07-02 04:30:00,
2013-07-02 00:45:00,67.2,66.0,29.90,NW,319,0.0,0.0,97,0.27,,,0.00,weatherlink.com 1.10,2013-07-02 04:45:00,
2013-07-02 01:00:00,67.1,66.0,29.90,SE,128,0.0,2.0,97,0.00,,,0.00,weatherlink.com 1.10,2013-07-02 05:00:00,
2013-07-02 01:15:00,67.0,66.0,29.90,SE,128,0.0,0.0,97,0.00,,,0.00,weatherlink.com 1.10,2013-07-02 05:15:00,
2013-07-02 01:30:00,66.8,66.0,29.89,SE,128,0.0,0.0,97,0.00,,,0.00,weatherlink.com 1.10,2013-07-02 05:30:00,
2013-07-02 01:45:00,66.9,66.0,29.89,SE,128,0.0,1.0,97,0.00,,,0.00,weatherlink.com 1.10,2013-07-02 05:45:00,
2013-07-02 02:00:00,67.0,66.0,29.89,SE,128,0.0,0.0,97,0.00,,,0.00,weatherlink.com 1.10,2013-07-02 06:00:00,
2013-07-02 02:15:00,67.0,66.0,29.89,SE,128,0.0,0.0,97,0.00,,,0.00,weatherlink.com 1.10,2013-07-02 06:15:00,
2013-07-02 02:30:00,67.0,66.0,29.88,SE,129,0.0,1.0,97,0.00,,,0.00,weatherlink.com 1.10,2013-07-02 06:30:00,
2013-07-02 02:45:00,66.9,66.0,29.88,ESE,122,0.0,0.0,97,0.00,,,0.00,weatherlink.com 1.10,2013-07-02 06:45:00,
2013-07-02 03:00:00,66.8,66.0,29.88,ESE,122,0.0,1.0,97,0.00,,,0.00,weatherlink.com 1.10,2013-07-02 07:00:00,
2013-07-02 03:15:00,66.8,66.0,29.88,ESE,122,0.0,0.0,97,0.00,,,0.00,weatherlink.com 1.10,2013-07-02 07:15:00,
2013-07-02 03:30:00,66.8,66.0,29.88,ESE,122,0.0,0.0,98,0.00,,,0.00,weatherlink.com 1.10,2013-07-02 07:30:00,
2013-07-02 03:45:00,66.7,66.0,29.89,ESE,122,0.0,1.0,98,0.00,,,0.00,weatherlink.com 1.10,2013-07-02 07:45:00,
2013-07-02 04:00:00,66.7,66.0,29.89,ESE,122,0.0,0.0,98,0.00,,,0.00,weatherlink.com 1.10,2013-07-02 08:00:00,
2013-07-02 04:15:00,66.6,66.0,29.89,ESE,122,0.0,0.0,98,0.00,,,0.00,weatherlink.com 1.10,2013-07-02 08:15:00,
2013-07-02 04:30:00,66.6,66.0,29.89,ESE,122,0.0,0.0,98,0.00,,,0.00,weatherlink.com 1.10,2013-07-02 08:30:00,
2013-07-02 04:45:00,66.6,66.0,29.89,ESE,122,0.0,0.0,98,0.00,,,0.00,weatherlink.com 1.10,2013-07-02 08:45:00,
2013-07-02 05:00:00,66.6,66.0,29.90,ESE,122,0.0,0.0,98,0.00,,,0.00,weatherlink.com 1.10,2013-07-02 09:00:00,
2013-07-02 05:15:00,66.6,66.0,29.89,ESE,122,0.0,0.0,98,0.00,,,0.00,weatherlink.com 1.10,2013-07-02 09:15:00,
2013-07-02 05:30:00,66.5,66.0,29.90,ESE,122,0.0,0.0,98,0.00,,,0.00,weatherlink.com 1.10,2013-07-02 09:30:00,
2013-07-02 05:45:00,66.3,66.0,29.90,ESE,122,0.0,1.0,98,0.00,,,0.00,weatherlink.com 1.10,2013-07-02 09:45:00,
2013-07-02 06:00:00,66.3,66.0,29.91,ESE,122,0.0,0.0,98,0.00,,,0.00,weatherlink.com 1.10,2013-07-02 10:00:00,
2013-07-02 06:15:00,66.2,66.0,29.90,ESE,122,0.0,0.0,98,0.00,,,0.00,weatherlink.com 1.10,2013-07-02 10:15:00,
2013-07-02 06:30:00,66.1,66.0,29.91,ESE,122,0.0,0.0,98,0.00,,,0.00,weatherlink.com 1.10,2013-07-02 10:30:00,
2013-07-02 06:45:00,65.9,65.0,29.92,SE,131,0.0,1.0,98,0.00,,,0.00,weatherlink.com 1.10,2013-07-02 10:45:00,
2013-07-02 07:00:00,65.8,65.0,29.92,SE,131,0.0,0.0,98,0.00,,,0.00,weatherlink.com 1.10,2013-07-02 11:00:00,
2013-07-02 07:15:00,65.7,65.0,29.93,SSE,150,0.0,1.0,98,0.00,,,0.00,weatherlink.com 1.10,2013-07-02 11:15:00,
2013-07-02 07:30:00,65.8,65.0,29.93,SSE,150,0.0,1.0,98,0.00,,,0.00,weatherlink.com 1.10,2013-07-02 11:30:00,
2013-07-02 07:45:00,65.6,65.0,29.93,SSE,150,0.0,0.0,98,0.00,,,0.00,weatherlink.com 1.10,2013-07-02 11:45:00,
2013-07-02 08:00:00,65.6,65.0,29.94,SE,136,0.0,1.0,98,0.00,,,0.00,weatherlink.com 1.10,2013-07-02 12:00:00,
2013-07-02 08:15:00,65.8,65.0,29.94,SE,136,0.0,1.0,98,0.00,,,0.00,weatherlink.com 1.10,2013-07-02 12:15:00,
2013-07-02 08:30:00,65.9,65.0,29.95,SE,138,0.0,0.0,98,0.00,,,0.00,weatherlink.com 1.10,2013-07-02 12:30:00,
2013-07-02 08:45:00,66.0,66.0,29.95,SE,138,0.0,0.0,98,0.00,,,0.00,weatherlink.com 1.10,2013-07-02 12:45:00,
2013-07-02 09:00:00,66.0,66.0,29.95,ESE,105,0.0,1.0,98,0.00,,,0.00,weatherlink.com 1.10,2013-07-02 13:00:00,
2013-07-02 09:15:00,66.3,66.0,29.95,East,90,0.0,1.0,98,0.00,,,0.00,weatherlink.com 1.10,2013-07-02 13:15:00,
2013-07-02 09:30:00,66.3,66.0,29.96,South,180,2.0,2.0,98,0.00,,,0.00,weatherlink.com 1.10,2013-07-02 13:30:00,
2013-07-02 09:45:00,66.2,66.0,29.95,ESE,112,0.0,2.0,98,0.00,,,0.00,weatherlink.com 1.10,2013-07-02 13:45:00,
2013-07-02 10:00:00,66.9,66.0,29.96,East,91,0.0,1.0,98,0.00,,,0.00,weatherlink.com 1.10,2013-07-02 14:00:00,
2013-07-02 10:15:00,67.0,66.0,29.96,East,90,0.0,2.0,97,0.00,,,0.00,weatherlink.com 1.10,2013-07-02 14:15:00,
2013-07-02 10:30:00,67.5,67.0,29.96,East,90,0.0,0.0,97,0.00,,,0.00,weatherlink.com 1.10,2013-07-02 14:30:00,
2013-07-02 10:45:00,68.4,67.0,29.96,East,91,0.0,0.0,96,0.00,,,0.00,weatherlink.com 1.10,2013-07-02 14:45:00,
2013-07-02 11:00:00,69.2,67.0,29.96,SSE,157,0.0,1.0,93,0.00,,,0.00,weatherlink.com 1.10,2013-07-02 15:00:00,
2013-07-02 11:15:00,70.3,68.0,29.96,South,181,2.0,2.0,91,0.00,,,0.00,weatherlink.com 1.10,2013-07-02 15:15:00,
2013-07-02 11:30:00,70.4,67.0,29.97,South,181,0.0,2.0,90,0.00,,,0.00,weatherlink.com 1.10,2013-07-02 15:30:00,
2013-07-02 11:45:00,71.2,69.0,29.97,ESE,122,0.0,0.0,91,0.00,,,0.00,weatherlink.com 1.10,2013-07-02 15:45:00,
2013-07-02 12:01:00,72.5,69.0,29.97,South,188,0.0,2.0,87,0.00,,,0.00,weatherlink.com 1.10,2013-07-02 16:01:00,
2013-07-02 12:16:00,73.3,69.0,29.97,South,180,0.0,3.0,85,0.00,,,0.00,weatherlink.com 1.10,2013-07-02 16:16:00,
2013-07-02 12:31:00,73.8,69.0,29.96,South,173,0.0,2.0,84,0.00,,,0.00,weatherlink.com 1.10,2013-07-02 16:31:00,
2013-07-02 12:46:00,74.3,68.0,29.96,South,171,2.0,5.0,81,0.00,,,0.00,weatherlink.com 1.10,2013-07-02 16:46:00,
2013-07-02 13:01:00,76.0,69.0,29.96,SW,229,2.0,6.0,80,0.00,,,0.00,weatherlink.com 1.10,2013-07-02 17:01:00,
2013-07-02 13:16:00,76.7,69.0,29.95,South,190,0.0,3.0,76,0.00,,,0.00,weatherlink.com 1.10,2013-07-02 17:16:00,
2013-07-02 13:31:00,77.1,69.0,29.96,South,186,3.0,4.0,76,0.01,,,0.01,weatherlink.com 1.10,2013-07-02 17:31:00,
2013-07-02 13:46:00,76.4,70.0,29.96,SW,221,2.0,3.0,81,0.01,,,0.01,weatherlink.com 1.10,2013-07-02 17:46:00,
2013-07-02 14:01:00,76.7,70.0,29.96,South,175,1.0,4.0,79,0.01,,,0.01,weatherlink.com 1.10,2013-07-02 18:01:00,
2013-07-02 14:16:00,77.8,70.0,29.96,SSW,205,2.0,4.0,78,0.01,,,0.01,weatherlink.com 1.10,2013-07-02 18:16:00,
2013-07-02 14:31:00,78.1,70.0,29.96,South,190,3.0,7.0,77,0.00,,,0.01,weatherlink.com 1.10,2013-07-02 18:31:00,
2013-07-02 14:46:00,80.0,71.0,29.96,WNW,296,3.0,5.0,74,0.00,,,0.01,weatherlink.com 1.10,2013-07-02 18:46:00,
2013-07-02 15:01:00,80.4,71.0,29.96,SW,216,1.0,8.0,72,0.00,,,0.01,weatherlink.com 1.10,2013-07-02 19:01:00,
2013-07-02 15:16:00,79.6,69.0,29.96,South,186,0.0,6.0,71,0.00,,,0.01,weatherlink.com 1.10,2013-07-02 19:16:00,
2013-07-02 15:31:00,80.2,69.0,29.95,SW,216,0.0,5.0,68,0.00,,,0.01,weatherlink.com 1.10,2013-07-02 19:31:00,
2013-07-02 15:46:00,80.5,69.0,29.95,WNW,287,1.0,4.0,69,0.00,,,0.01,weatherlink.com 1.10,2013-07-02 19:46:00,
2013-07-02 16:01:00,80.3,68.0,29.94,West,273,3.0,5.0,67,0.00,,,0.01,weatherlink.com 1.10,2013-07-02 20:01:00,
2013-07-02 16:16:00,80.9,69.0,29.94,SSE,163,1.0,4.0,67,0.00,,,0.01,weatherlink.com 1.10,2013-07-02 20:16:00,
2013-07-02 16:31:00,81.6,68.0,29.93,South,175,4.0,4.0,63,0.00,,,0.01,weatherlink.com 1.10,2013-07-02 20:31:00,
2013-07-02 16:46:00,81.4,68.0,29.93,SSW,198,2.0,5.0,63,0.00,,,0.01,weatherlink.com 1.10,2013-07-02 20:46:00,
2013-07-02 17:01:00,82.3,67.0,29.93,West,267,0.0,5.0,61,0.00,,,0.01,weatherlink.com 1.10,2013-07-02 21:01:00,
2013-07-02 17:16:00,82.4,68.0,29.93,SSW,194,0.0,3.0,61,0.00,,,0.01,weatherlink.com 1.10,2013-07-02 21:16:00,
2013-07-02 17:31:00,83.4,68.0,29.93,SSW,202,2.0,2.0,61,0.00,,,0.01,weatherlink.com 1.10,2013-07-02 21:31:00,
2013-07-02 17:46:00,82.8,67.0,29.93,South,180,0.0,5.0,60,0.00,,,0.01,weatherlink.com 1.10,2013-07-02 21:46:00,
2013-07-02 18:01:00,81.9,68.0,29.93,South,173,1.0,4.0,63,0.00,,,0.01,weatherlink.com 1.10,2013-07-02 22:01:00,
2013-07-02 18:16:00,80.7,67.0,29.93,SSW,195,2.0,4.0,64,0.00,,,0.01,weatherlink.com 1.10,2013-07-02 22:16:00,
2013-07-02 18:31:00,80.7,67.0,29.93,South,190,3.0,4.0,64,0.00,,,0.01,weatherlink.com 1.10,2013-07-02 22:31:00,
2013-07-02 18:46:00,80.2,68.0,29.93,South,169,2.0,4.0,67,0.00,,,0.01,weatherlink.com 1.10,2013-07-02 22:46:00,
2013-07-02 19:01:00,79.6,68.0,29.93,South,188,0.0,5.0,68,0.00,,,0.01,weatherlink.com 1.10,2013-07-02 23:01:00,
2013-07-02 19:16:00,79.6,69.0,29.93,South,189,0.0,5.0,69,0.00,,,0.01,weatherlink.com 1.10,2013-07-02 23:16:00,
2013-07-02 19:31:00,79.5,68.0,29.94,South,180,0.0,5.0,68,0.00,,,0.01,weatherlink.com 1.10,2013-07-02 23:31:00,
2013-07-02 19:46:00,79.4,68.0,29.94,South,175,0.0,4.0,69,0.00,,,0.01,weatherlink.com 1.10,2013-07-02 23:46:00,
2013-07-02 20:01:00,79.2,68.0,29.94,South,185,0.0,5.0,69,0.00,,,0.01,weatherlink.com 1.10,2013-07-03 00:01:00,
2013-07-02 20:16:00,79.0,68.0,29.95,South,183,3.0,4.0,69,0.00,,,0.01,weatherlink.com 1.10,2013-07-03 00:16:00,
2013-07-02 20:31:00,78.7,69.0,29.95,South,176,2.0,3.0,71,0.00,,,0.01,weatherlink.com 1.10,2013-07-03 00:31:00,
2013-07-02 20:46:00,78.3,69.0,29.95,South,179,1.0,4.0,72,0.00,,,0.01,weatherlink.com 1.10,2013-07-03 00:46:00,
2013-07-02 21:01:00,77.9,69.0,29.95,SSW,196,1.0,3.0,73,0.00,,,0.01,weatherlink.com 1.10,2013-07-03 01:01:00,
2013-07-02 21:16:00,77.4,69.0,29.95,SSW,192,1.0,3.0,74,0.00,,,0.01,weatherlink.com 1.10,2013-07-03 01:16:00,
2013-07-02 21:31:00,77.0,69.0,29.95,SSW,193,0.0,1.0,75,0.00,,,0.01,weatherlink.com 1.10,2013-07-03 01:31:00,
2013-07-02 21:46:00,76.2,69.0,29.96,SSW,193,0.0,0.0,77,0.00,,,0.01,weatherlink.com 1.10,2013-07-03 01:46:00,
2013-07-02 22:01:00,76.0,68.0,29.97,SSW,193,0.0,0.0,77,0.00,,,0.01,weatherlink.com 1.10,2013-07-03 02:01:00,
2013-07-02 22:16:00,75.7,69.0,29.98,SSW,193,0.0,0.0,79,0.00,,,0.01,weatherlink.com 1.10,2013-07-03 02:16:00,
2013-07-02 22:32:00,75.2,69.0,29.98,SSW,193,0.0,0.0,80,0.00,,,0.01,weatherlink.com 1.10,2013-07-03 02:32:00,
2013-07-02 22:47:00,74.9,69.0,29.98,SSW,193,0.0,0.0,81,0.00,,,0.01,weatherlink.com 1.10,2013-07-03 02:47:00,
2013-07-02 23:02:00,74.5,69.0,29.98,SSW,193,0.0,0.0,82,0.00,,,0.01,weatherlink.com 1.10,2013-07-03 03:02:00,
2013-07-02 23:17:00,74.3,69.0,29.99,SSW,193,0.0,0.0,82,0.00,,,0.01,weatherlink.com 1.10,2013-07-03 03:17:00,
2013-07-02 23:32:00,74.0,69.0,29.99,SSW,193,0.0,1.0,84,0.00,,,0.01,weatherlink.com 1.10,2013-07-03 03:32:00,
2013-07-02 23:47:00,73.7,69.0,29.99,SW,222,0.0,3.0,84,0.00,,,0.01,weatherlink.com 1.10,2013-07-03 03:47:00,